CST,Max TemperatureF,Mean TemperatureF,Min TemperatureF,Max Dew PointF,MeanDew PointF,Min DewpointF,Max Humidity, Mean Humidity, Min Humidity, Max Sea Level PressureIn, Mean Sea Level PressureIn, Min Sea Level PressureIn, Max VisibilityMiles, Mean VisibilityMiles, Min VisibilityMiles, Max Wind SpeedMPH, Mean Wind SpeedMPH, Max Gust SpeedMPH,PrecipitationIn, CloudCover, Events, WindDirDegrees
2012-12-1,59,49,38,54,46,33,96,86,76,30.04,29.88,29.78,7,4,0,14,7,17,0.00,7,Fog,168
2012-12-2,52,48,44,50,47,44,100,93,86,30.04,29.95,29.85,4,1,0,15,6,18,0.00,8,Fog,166
2012-12-3,69,56,43,57,48,29,100,77,53,30.03,29.79,29.65,10,7,0,25,13,31,0.00,6,Fog,208
2012-12-4,60,47,34,28,25,22,69,48,26,30.36,30.22,30.04,10,10,10,15,7,17,0.00,2,,315
2012-12-5,47,38,28,34,26,19,69,59,49,30.40,30.23,30.01,10,10,10,17,11,22,0.00,6,,125
2012-12-6,52,48,44,40,35,32,70,60,50,30.01,29.95,29.90,10,10,10,16,9,21,T,8,Rain,256
2012-12-7,45,41,36,34,29,26,75,67,58,29.99,29.96,29.90,10,10,9,15,7,20,T,8,Rain,33
2012-12-8,40,34,27,32,27,22,81,70,59,30.05,30.00,29.94,10,9,5,16,6,22,T,6,Rain,83
2012-12-9,38,29,20,34,28,12,96,82,68,29.99,29.90,29.81,10,5,1,33,13,43,0.22,8,Rain-Snow,42
2012-12-10,28,22,15,13,10,5,74,60,46,30.06,30.01,29.97,10,10,9,26,11,35,T,4,Snow,277
2012-12-11,43,30,16,22,17,7,71,57,43,30.08,30.01,29.93,10,10,10,24,9,29,0.00,3,,222
2012-12-12,51,39,26,19,16,12,68,45,21,30.12,30.08,30.04,10,10,10,26,13,35,0.00,1,,185
2012-12-13,52,42,31,22,18,13,56,43,29,30.10,30.06,30.02,10,10,10,17,11,25,0.00,3,,200
2012-12-14,54,40,25,38,28,19,75,57,38,30.12,29.96,29.74,10,10,10,22,9,30,T,5,,147
2012-12-15,51,45,38,47,42,33,93,80,66,29.71,29.56,29.47,10,8,3,24,13,30,0.47,8,Rain,221
2012-12-16,38,34,30,34,29,24,89,80,70,29.82,29.75,29.66,10,6,2,18,9,22,0.00,8,,315
2012-12-17,35,30,25,30,25,21,89,77,64,29.81,29.75,29.69,10,7,4,8,3,11,0.00,8,,13
2012-12-18,42,36,29,32,29,26,89,77,64,29.91,29.68,29.51,10,7,3,28,11,33,T,7,,269
2012-12-19,37,33,29,32,30,27,96,86,76,30.00,29.85,29.66,7,3,0,25,11,35,0.78,8,Fog-Rain-Snow,70
2012-12-20,34,24,14,32,23,9,100,87,73,30.14,29.76,29.55,10,3,0,39,25,54,0.20,6,Fog-Snow,344
2012-12-21,21,16,11,11,8,4,80,71,62,30.35,30.30,30.15,10,10,9,23,11,29,0.00,0,,293
2012-12-22,40,25,10,22,15,7,92,68,44,30.27,30.07,29.96,10,10,7,14,6,16,0.00,1,,148
2012-12-23,24,19,13,14,12,8,84,75,65,30.09,30.04,30.00,7,6,4,14,8,17,0.00,6,,22
2012-12-24,21,15,9,18,12,2,91,79,67,30.30,30.08,29.95,10,5,0,23,13,28,0.01,7,Fog-Snow,323
2012-12-25,13,8,2,3,0,-4,79,70,61,30.51,30.41,30.31,10,10,10,16,11,21,0.00,4,,359
2012-12-26,18,10,2,8,3,-3,87,74,61,30.37,30.29,30.20,10,10,10,12,7,16,0.00,3,,318
2012-12-27,26,17,8,20,13,5,83,76,68,30.26,30.16,30.05,10,9,7,14,7,16,T,6,Snow,69
2012-12-28,29,23,17,24,21,13,92,84,75,30.07,30.00,29.92,6,3,1,16,6,19,0.05,8,Snow,1
2012-12-29,20,16,11,15,10,7,84,76,67,30.28,30.19,30.03,10,6,2,21,11,24,T,5,Snow,283
2012-12-30,40,25,10,25,17,7,88,69,50,30.31,30.18,30.04,10,9,4,17,9,30,0.00,5,,186
2012-12-31,33,22,11,19,10,2,73,65,56,30.29,30.21,30.08,10,10,10,18,10,22,0.00,8,,346